Location: Mount Kobau Star Party
(49.1167°N, 119.7333°W)
Time: 09:58:26
(UTC-07:00)

BlueWalker 3 - Pass Details

Date: 02 March 2024
Orbit: 485 x 496 km, 53.2° (Epoch: 11 April)

Event Time Altitude Azimuth Distance (km) Brightness Sun altitude
Rises 20:44:31 0° 285° (WNW) 2,551 6.7 -29.4°
Reaches altitude 10° 20:47:38 10° 258° (WSW) 1,664 5.1 -29.9°
Enters shadow 20:48:22 12° 247° (WSW) 1,548 4.8 -30.0°
